Printer-friendly version
Follow the MPC on Twitter Follow the MPC on Facebook The MPC blog
Minor Planet Center

MPEC 2007-P32 : COMET C/2007 N3 (LULIN)

The following Minor Planet Electronic Circular may be linked-to from your own Web pages, but must not otherwise be redistributed electronically.

A form allowing access to any MPEC is at the bottom of this page.


Read MPEC 2007-P31 Read MPEC 2007-P33


M.P.E.C. 2007-P32                                Issued 2007 Aug. 10, 19:57 UT

     The Minor Planet Electronic Circulars contain information on unusual
         minor planets and routine data on comets.  They are published
   on behalf of Commission 20 of the International Astronomical Union by the
          Minor Planet Center, Smithsonian Astrophysical Observatory,
                          Cambridge, MA 02138, U.S.A.

             Prepared using the Tamkin Foundation Computer Network

                              MPC@CFA.HARVARD.EDU
          URL http://www.cfa.harvard.edu/iau/mpc.html  ISSN 1523-6714

                            COMET C/2007 N3 (LULIN)

Observations:
    CK07N030   2007 07 23.66597 22 26 06.35 -09 28 58.1          18.5 T EP032372
    CK07N030  C2007 08 04.07252 22 17 24.84 -10 17 28.3          18.9 N EP032232
    CK07N030  C2007 08 04.09870 22 17 23.56 -10 17 35.3          18.7 N EP032232
    CK07N030  C2007 08 04.12334 22 17 22.37 -10 17 42.4          17.8 N EP032232
    CK07N030  C2007 08 04.89130 22 16 44.55 -10 21 11.2          18.1 T EP032585
    CK07N030  C2007 08 04.92730 22 16 42.68 -10 21 21.4          18.1 T EP032585
    CK07N030  C2007 08 04.94355 22 16 41.83 -10 21 26.5          19.2 N EP032585
    CK07N030  C2007 08 05.03285 22 16 37.39 -10 21 50.3                 EP032204
    CK07N030  C2007 08 05.06438 22 16 35.87 -10 21 58.6          18.9 N EP032147
    CK07N030  C2007 08 05.07720 22 16 35.15 -10 22 03.1          18.4 N EP032147
    CK07N030  C2007 08 05.12141 22 16 32.93 -10 22 14.7          18.1 N EP032204
    CK07N030  C2007 08 05.89529 22 15 54.31 -10 25 47.9                 EP032246
    CK07N030  C2007 08 05.89735 22 15 54.23 -10 25 48.0                 EP032246
    CK07N030  C2007 08 05.89809 22 15 54.23 -10 25 48.5                 EP032246
    CK07N030  C2007 08 05.89921 22 15 54.16 -10 25 48.7                 EP032246
    CK07N030  C2007 08 05.90010 22 15 54.13 -10 25 49.1                 EP032246
    CK07N030  C2007 08 05.90086 22 15 54.09 -10 25 49.2                 EP032246
    CK07N030  C2007 08 05.96104 22 15 51.05 -10 26 06.5          18.2 N EP032B01
    CK07N030  C2007 08 05.96546 22 15 50.80 -10 26 08.0                 EP032B01
    CK07N030  C2007 08 05.99972 22 15 49.03 -10 26 17.1                 EP032B01
    CK07N030  C2007 08 06.00411 22 15 48.84 -10 26 18.1                 EP032B01
    CK07N030  C2007 08 08.99123 22 13 16.27 -10 40 15.6          18.0 N EP032213
    CK07N030  C2007 08 08.99411 22 13 16.15 -10 40 16.4          18.0 N EP032213
    CK07N030  C2007 08 08.99698 22 13 16.03 -10 40 17.1          18.0 N EP032213
    CK07N030  C2007 08 09.21866 22 13 04.57 -10 41 19.6          18.8 T EP032704
    CK07N030  C2007 08 09.23051 22 13 03.99 -10 41 23.4          18.9 T EP032704
    CK07N030  C2007 08 09.24237 22 13 03.36 -10 41 26.8          19.0 T EP032704
    CK07N030  C2007 08 09.25420 22 13 02.74 -10 41 30.2          19.0 T EP032704
    CK07N030  C2007 08 09.26173 22 13 02.31 -10 41 33.0          18.0 N EP032850
    CK07N030  C2007 08 09.26601 22 13 02.11 -10 41 33.7          18.9 T EP032704
    CK07N030  C2007 08 09.27547 22 13 01.58 -10 41 36.8          18.5 N EP032850
    CK07N030  C2007 08 09.29064 22 13 00.80 -10 41 41.5          18.4 N EP032850
    CK07N030  C2007 08 09.30732 22 12 59.91 -10 41 45.9          18.4 N EP032850
    CK07N030  C2007 08 10.18164 22 12 14.36 -10 45 55.0          18.3 N EP032850
    CK07N030  C2007 08 10.20459 22 12 13.02 -10 46 02.9          18.5 N EP032850
    CK07N030  C2007 08 10.29475 22 12 08.35 -10 46 27.4          18.3 N EP032850
    CK07N030  C2007 08 10.31729 22 12 07.14 -10 46 34.4          18.0 N EP032850

Observer details:
147 Osservatorio Astronomico di Suno.  Observers C. Cremaschini, D. Crespi,
    S. Foglia, G. Galli, S. Minuto.  0.40-m f/4 reflector + CCD.
204 Schiaparelli Observatory.  Observers L. Buzzi, F. Luppi.  Measurer
    L. Buzzi.  0.60-m f/4.64 reflector + CCD.
213 Observatorio Montcabre.  Observer R. Naves.  Measurer M. Campas.  0.30-m
    f/10 Schmidt-Cassegrain + CCD.
232 Masquefa Observatory.  Observer E. Reina.  0.25-m f/3.3 Schmidt-Cassegrain
    + CCD.
246 Klet Observatory-KLENOT.  Observers J. Ticha, M. Tichy.  Measurer M. Tichy.
    1.06-m KLENOT Telescope + CCD.
372 Geisei.  Observer T. Seki.  0.60-m f/3.5 reflector.
585 Kiev comet station.  Observer A. Baransky.  0.7-m f/4 reflector + CCD.
704 Lincoln Laboratory ETS, New Mexico.  Observers M. Bezpalko, D. Torres,
    R. Kracke, G. Spitz, J. Kistler.  Measurers J. Stuart, S. Scruggs.  1.0-m
    f/2.15 reflector + CCD.
850 Cordell-Lorenz Observatory, Sewanee.  Observers D. T. Durig, D. S. Hardage.
    0.30-m f/3 Schmidt-Cassegrain + CCD.
B01 Taunus Observatory, Frankfurt.  Observers E. Schwab, R. Kling.  Measurer
    E. Schwab.  0.6-m f/3.3 Cassegrain + CCD.

    C/2007 N3 (Lulin)
T 2009 Jan. 10.5117 TT                                  MPC
q   1.210015             (2000.0)            P               Q
                   Peri.  136.8891      -0.9296507      -0.3682949
                   Node   338.4930      -0.3452892      +0.8610254
e   1.0            Incl.  178.3728      -0.1285491      +0.3507051
From 154 observations 2007 July 11-Aug. 10.

Brian G. Marsden             (C) Copyright 2007 MPC           M.P.E.C. 2007-P32

Read MPEC 2007-P31 Read MPEC 2007-P33


MPEC number:

Enter an MPEC number in one of the following forms:

  • 1997-B01 (the full form)
  • J97B01 (the packed version of the full form)
  • B01 (the abbreviated form)

Valid HTML 4.01!